Radiation Dose at Monitoring Post of Fukushima Daini Nuclear Power Station
Date,Time,MP-1(microSv/h),MP-2(microSv/h),MP-3(microSv/h),MP-4(microSv/h),MP-5(microSv/h),MP-6(microSv/h),MP-7(microSv/h),Wind Direction,Wind Velocity(m/s),Rain
2024/03/15,00:00,0.145,0.127,0.205,0.195,0.204,0.115,0.075,west-northwest,2.2,No
2024/03/15,00:10,0.145,0.125,0.206,0.195,0.204,0.115,0.076,west-southwest,1.3,No
2024/03/15,00:20,0.145,0.126,0.205,0.195,0.204,0.115,0.075,southwest,1.1,No
2024/03/15,00:30,0.145,0.127,0.206,0.195,0.205,0.114,0.074,-,CALM,No
2024/03/15,00:40,0.145,0.126,0.206,0.195,0.204,0.115,0.076,-,CALM,No
2024/03/15,00:50,0.145,0.126,0.205,0.195,0.204,0.114,0.076,north-northwest,1.0,No
2024/03/15,01:00,0.145,0.127,0.206,0.194,0.204,0.115,0.075,southwest,0.8,No
2024/03/15,01:10,0.145,0.126,0.206,0.194,0.204,0.115,0.075,west,1.5,No
2024/03/15,01:20,0.145,0.126,0.206,0.194,0.205,0.115,0.074,west,2.1,No
2024/03/15,01:30,0.146,0.127,0.206,0.195,0.204,0.116,0.075,west,2.3,No
2024/03/15,01:40,0.145,0.126,0.206,0.195,0.204,0.115,0.075,west-northwest,2.1,No
2024/03/15,01:50,0.145,0.127,0.206,0.194,0.204,0.114,0.075,west,1.8,No
2024/03/15,02:00,0.145,0.127,0.205,0.195,0.205,0.115,0.076,west,1.9,No
2024/03/15,02:10,0.144,0.127,0.206,0.195,0.205,0.114,0.076,west,1.6,No
2024/03/15,02:20,0.146,0.126,0.206,0.196,0.204,0.115,0.075,-,CALM,No
2024/03/15,02:30,0.146,0.127,0.207,0.195,0.204,0.115,0.076,west-northwest,2.7,No
2024/03/15,02:40,0.146,0.127,0.207,0.195,0.204,0.115,0.076,west,3.2,No
2024/03/15,02:50,0.145,0.126,0.207,0.195,0.204,0.115,0.076,west,3.4,No
2024/03/15,03:00,0.145,0.127,0.205,0.194,0.205,0.115,0.075,west,3.0,No
2024/03/15,03:10,0.145,0.126,0.205,0.195,0.205,0.114,0.076,west-southwest,2.1,No
2024/03/15,03:20,0.146,0.126,0.206,0.195,0.205,0.114,0.076,west-southwest,1.0,No
2024/03/15,03:30,0.144,0.127,0.206,0.195,0.205,0.115,0.076,south-southwest,1.1,No
2024/03/15,03:40,0.145,0.127,0.206,0.196,0.204,0.115,0.076,south,0.9,No
2024/03/15,03:50,0.145,0.127,0.206,0.196,0.205,0.115,0.076,south,0.7,No
2024/03/15,04:00,0.146,0.127,0.207,0.196,0.205,0.115,0.075,southwest,0.7,No
2024/03/15,04:10,0.146,0.127,0.207,0.195,0.204,0.115,0.076,southwest,1.1,No
2024/03/15,04:20,0.145,0.127,0.204,0.195,0.205,0.115,0.075,west,2.8,No
2024/03/15,04:30,0.145,0.127,0.206,0.196,0.204,0.115,0.075,west,3.7,No
2024/03/15,04:40,0.146,0.125,0.205,0.195,0.205,0.115,0.076,west-southwest,3.7,No
2024/03/15,04:50,0.146,0.126,0.205,0.195,0.204,0.115,0.075,west-southwest,2.5,No
2024/03/15,05:00,0.145,0.126,0.207,0.195,0.204,0.114,0.075,south-southwest,2.5,No
2024/03/15,05:10,0.146,0.126,0.205,0.195,0.204,0.115,0.075,south-southwest,3.1,No
2024/03/15,05:20,0.145,0.126,0.207,0.195,0.205,0.115,0.076,southwest,3.4,No
2024/03/15,05:30,0.147,0.127,0.206,0.195,0.204,0.116,0.075,southwest,4.1,No
2024/03/15,05:40,0.146,0.127,0.207,0.195,0.205,0.115,0.075,southwest,4.4,No
2024/03/15,05:50,0.146,0.127,0.205,0.195,0.203,0.115,0.076,southwest,4.5,No
2024/03/15,06:00,0.145,0.126,0.206,0.195,0.205,0.115,0.076,southwest,4.9,No
2024/03/15,06:10,0.146,0.127,0.206,0.195,0.205,0.115,0.076,southwest,4.7,No
2024/03/15,06:20,0.145,0.127,0.207,0.194,0.205,0.115,0.075,southwest,5.5,No
2024/03/15,06:30,0.145,0.126,0.206,0.196,0.204,0.115,0.076,southwest,5.0,No
2024/03/15,06:40,0.145,0.127,0.206,0.195,0.205,0.115,0.076,southwest,4.6,No
2024/03/15,06:50,0.145,0.128,0.206,0.196,0.204,0.115,0.076,southwest,3.5,No
2024/03/15,07:00,0.145,0.126,0.206,0.195,0.204,0.115,0.076,southwest,3.5,No
2024/03/15,07:10,0.146,0.127,0.207,0.194,0.204,0.116,0.075,south-southwest,4.1,No
2024/03/15,07:20,0.146,0.127,0.206,0.195,0.203,0.115,0.076,south-southwest,5.5,No
2024/03/15,07:30,0.146,0.127,0.206,0.195,0.205,0.115,0.075,south-southwest,6.4,No
2024/03/15,07:40,0.145,0.127,0.204,0.195,0.203,0.114,0.075,south-southwest,5.1,No
2024/03/15,07:50,0.145,0.126,0.206,0.195,0.204,0.115,0.076,south-southwest,3.8,No
2024/03/15,08:00,0.145,0.127,0.206,0.194,0.205,0.115,0.075,west-southwest,4.9,No
2024/03/15,08:10,0.145,0.127,0.206,0.193,0.204,0.115,0.075,west-southwest,5.0,No
2024/03/15,08:20,0.144,0.126,0.204,0.195,0.203,0.115,0.075,west,5.2,No
2024/03/15,08:30,0.146,0.126,0.205,0.194,0.205,0.116,0.076,west,5.0,No
2024/03/15,08:40,0.144,0.125,0.204,0.194,0.203,0.115,0.076,west-southwest,3.3,No
2024/03/15,08:50,0.146,0.126,0.205,0.193,0.205,0.114,0.075,southwest,4.1,No
2024/03/15,09:00,0.145,0.127,0.203,0.193,0.204,0.115,0.075,southwest,4.0,No
2024/03/15,09:10,0.144,0.126,0.205,0.194,0.204,0.115,0.075,southwest,4.8,No
2024/03/15,09:20,0.144,0.126,0.203,0.194,0.204,0.115,0.075,west,5.6,No
2024/03/15,09:30,0.144,0.125,0.204,0.192,0.204,0.115,0.075,west-southwest,4.2,No
2024/03/15,09:40,0.145,0.126,0.206,0.194,0.204,0.115,0.074,west-southwest,4.2,No
2024/03/15,09:50,0.144,0.126,0.205,0.193,0.204,0.114,0.075,west-southwest,5.6,No
2024/03/15,10:00,0.145,0.125,0.206,0.195,0.203,0.114,0.075,southwest,6.3,No
2024/03/15,10:10,0.145,0.125,0.204,0.193,0.205,0.115,0.075,southwest,5.4,No
2024/03/15,10:20,0.143,0.126,0.205,0.193,0.203,0.114,0.074,west-southwest,5.6,No
2024/03/15,10:30,0.145,0.126,0.205,0.193,0.205,0.115,0.075,southwest,2.5,No
2024/03/15,10:40,0.143,0.126,0.205,0.195,0.202,0.115,0.075,southwest,4.2,No
2024/03/15,10:50,0.145,0.126,0.204,0.195,0.204,0.114,0.075,south,4.2,No
2024/03/15,11:00,0.144,0.126,0.204,0.194,0.204,0.115,0.075,south-southeast,5.8,No
2024/03/15,11:10,0.143,0.125,0.204,0.195,0.202,0.115,0.075,south-southeast,6.8,No
2024/03/15,11:20,0.145,0.127,0.205,0.194,0.205,0.114,0.076,south,6.2,No
2024/03/15,11:30,0.144,0.126,0.205,0.196,0.203,0.115,0.075,south,6.4,No
2024/03/15,11:40,0.146,0.127,0.204,0.194,0.204,0.115,0.075,south-southeast,4.8,No
2024/03/15,11:50,0.145,0.126,0.206,0.195,0.204,0.115,0.075,south,4.2,No
2024/03/15,12:00,0.144,0.126,0.203,0.195,0.202,0.116,0.074,south-southwest,3.9,No
2024/03/15,12:10,0.146,0.126,0.206,0.195,0.205,0.115,0.075,south-southwest,5.2,No
2024/03/15,12:20,0.144,0.126,0.206,0.195,0.204,0.116,0.075,southwest,4.1,No
2024/03/15,12:30,0.143,0.127,0.204,0.194,0.202,0.115,0.075,west,3.5,No
2024/03/15,12:40,0.145,0.126,0.206,0.196,0.204,0.114,0.075,west-southwest,3.6,No
2024/03/15,12:50,0.144,0.126,0.206,0.194,0.206,0.115,0.075,west-southwest,3.6,No
2024/03/15,13:00,0.143,0.126,0.204,0.195,0.203,0.115,0.076,west-southwest,4.2,No
2024/03/15,13:10,0.146,0.125,0.207,0.196,0.202,0.115,0.075,west-southwest,5.7,No
2024/03/15,13:20,0.145,0.126,0.205,0.194,0.203,0.116,0.074,southwest,5.0,No
2024/03/15,13:30,0.144,0.126,0.204,0.195,0.203,0.115,0.075,southwest,3.3,No
2024/03/15,13:40,0.145,0.127,0.206,0.197,0.202,0.114,0.076,west,3.3,No
2024/03/15,13:50,0.143,0.128,0.206,0.194,0.204,0.116,0.074,west,7.1,No
2024/03/15,14:00,0.146,0.125,0.204,0.194,0.205,0.115,0.075,west,8.7,No
2024/03/15,14:10,0.145,0.126,0.206,0.196,0.203,0.115,0.075,west-southwest,6.6,No
2024/03/15,14:20,0.144,0.125,0.206,0.194,0.204,0.115,0.075,west-southwest,2.7,No
2024/03/15,14:30,0.146,0.126,0.205,0.195,0.205,0.115,0.075,west,5.0,No
2024/03/15,14:40,0.146,0.126,0.204,0.194,0.203,0.115,0.075,west,7.8,No
2024/03/15,14:50,0.145,0.126,0.206,0.194,0.204,0.116,0.075,west,9.6,No
2024/03/15,15:00,0.147,0.127,0.205,0.195,0.205,0.116,0.075,west,7.6,No
2024/03/15,15:10,0.145,0.126,0.207,0.196,0.205,0.114,0.076,west,7.3,No
2024/03/15,15:20,0.145,0.127,0.206,0.197,0.207,0.116,0.075,west,9.0,No
2024/03/15,15:30,0.145,0.127,0.207,0.196,0.204,0.115,0.075,west,8.1,No
2024/03/15,15:40,0.145,0.127,0.207,0.196,0.207,0.115,0.075,west,5.4,No
2024/03/15,15:50,0.145,0.127,0.208,0.197,0.205,0.115,0.076,west-southwest,4.9,No
2024/03/15,16:00,0.145,0.128,0.208,0.196,0.206,0.115,0.076,west,4.8,No
2024/03/15,16:10,0.146,0.127,0.207,0.197,0.205,0.116,0.076,west,6.7,No
2024/03/15,16:20,0.145,0.127,0.207,0.196,0.206,0.115,0.075,west,4.5,No
2024/03/15,16:30,0.146,0.126,0.207,0.196,0.205,0.116,0.075,west-northwest,2.8,No
2024/03/15,16:40,0.146,0.127,0.207,0.196,0.205,0.115,0.075,west-southwest,2.1,No
2024/03/15,16:50,0.146,0.127,0.207,0.195,0.204,0.116,0.075,-,CALM,No
2024/03/15,17:00,0.145,0.126,0.206,0.195,0.205,0.114,0.076,west,1.5,No
2024/03/15,17:10,0.145,0.127,0.207,0.196,0.205,0.115,0.075,west,1.9,No
2024/03/15,17:20,0.146,0.127,0.205,0.195,0.205,0.115,0.076,west,3.0,No
2024/03/15,17:30,0.146,0.126,0.207,0.196,0.207,0.115,0.075,west,2.7,No
2024/03/15,17:40,0.146,0.127,0.207,0.196,0.206,0.115,0.075,west,3.8,No
2024/03/15,17:50,0.145,0.127,0.206,0.197,0.205,0.115,0.076,west-southwest,2.9,No
2024/03/15,18:00,0.145,0.126,0.207,0.196,0.207,0.115,0.076,west-southwest,2.4,No
2024/03/15,18:10,0.146,0.128,0.207,0.197,0.205,0.115,0.075,south-southeast,1.6,No
2024/03/15,18:20,0.144,0.126,0.206,0.197,0.206,0.115,0.075,south-southeast,1.6,No
2024/03/15,18:30,0.146,0.127,0.207,0.196,0.206,0.115,0.075,southwest,2.7,No
2024/03/15,18:40,0.146,0.128,0.208,0.197,0.205,0.115,0.076,west-southwest,2.4,No
2024/03/15,18:50,0.145,0.127,0.207,0.196,0.207,0.115,0.075,south-southwest,2.0,No
2024/03/15,19:00,0.146,0.127,0.207,0.197,0.206,0.116,0.075,south,3.6,No
2024/03/15,19:10,0.145,0.127,0.207,0.197,0.205,0.116,0.076,southwest,2.1,No
2024/03/15,19:20,0.145,0.128,0.207,0.195,0.206,0.115,0.075,west-southwest,3.5,No
2024/03/15,19:30,0.147,0.128,0.206,0.198,0.204,0.115,0.075,west-southwest,3.5,No
2024/03/15,19:40,0.146,0.127,0.206,0.197,0.206,0.115,0.076,west,3.6,No
2024/03/15,19:50,0.146,0.126,0.208,0.196,0.205,0.115,0.075,west-southwest,3.6,No
2024/03/15,20:00,0.145,0.127,0.206,0.196,0.207,0.115,0.075,west-southwest,3.3,No
2024/03/15,20:10,0.145,0.127,0.207,0.196,0.205,0.116,0.076,west-southwest,8.1,No
2024/03/15,20:20,0.146,0.127,0.207,0.196,0.205,0.116,0.075,west,6.6,No
2024/03/15,20:30,0.146,0.127,0.207,0.197,0.206,0.115,0.076,west-southwest,5.7,No
2024/03/15,20:40,0.146,0.128,0.207,0.195,0.205,0.116,0.075,west-southwest,5.1,No
2024/03/15,20:50,0.145,0.127,0.208,0.195,0.206,0.115,0.075,west-southwest,6.0,No
2024/03/15,21:00,0.145,0.127,0.206,0.197,0.205,0.116,0.075,west,3.1,No
2024/03/15,21:10,0.146,0.127,0.206,0.196,0.205,0.115,0.075,west-southwest,4.7,No
2024/03/15,21:20,0.145,0.126,0.208,0.197,0.205,0.116,0.075,west,3.9,No
2024/03/15,21:30,0.146,0.127,0.208,0.197,0.205,0.116,0.076,southwest,1.2,No
2024/03/15,21:40,0.146,0.127,0.207,0.196,0.205,0.116,0.075,west,4.6,No
2024/03/15,21:50,0.145,0.127,0.206,0.195,0.206,0.115,0.075,west,7.9,No
2024/03/15,22:00,0.146,0.128,0.207,0.196,0.203,0.116,0.075,west-northwest,3.8,No
2024/03/15,22:10,0.146,0.127,0.207,0.196,0.205,0.116,0.075,west-northwest,2.5,No
2024/03/15,22:20,0.145,0.126,0.207,0.197,0.206,0.115,0.076,west,0.8,No
2024/03/15,22:30,0.146,0.128,0.207,0.197,0.205,0.115,0.076,west,6.2,No
2024/03/15,22:40,0.145,0.127,0.206,0.195,0.206,0.115,0.076,west,6.1,Yes
2024/03/15,22:50,0.145,0.127,0.207,0.197,0.204,0.116,0.076,west-northwest,7.5,Yes
2024/03/15,23:00,0.146,0.127,0.207,0.197,0.206,0.115,0.076,west-northwest,9.5,Yes
2024/03/15,23:10,0.146,0.126,0.208,0.197,0.205,0.116,0.076,west,10.9,Yes
2024/03/15,23:20,0.146,0.128,0.206,0.196,0.205,0.116,0.076,west-northwest,11.2,No
2024/03/15,23:30,0.147,0.128,0.207,0.196,0.206,0.116,0.076,west-northwest,6.6,No
2024/03/15,23:40,0.146,0.128,0.208,0.196,0.206,0.116,0.076,west,4.0,No
2024/03/15,23:50,0.147,0.128,0.206,0.197,0.206,0.116,0.075,northwest,3.1,No
